Regional Weather Roundup
Issued by NWS

Home | Current Version | Previous Version | Text Only | Print | Product List | Glossary On
Versions: 1 2 3 4 5 6 7 8 9 10 11 12 13 14 15 16 17 18 19 20 21 22 23 24 25 26 27 28 29 30 31 32 33 34 35 36 37 38 39 40 41 42 43 44 45 46 47 48 49 50
000
ASUS44 KMEG 020010
RWRTN
TENNESSEE HOURLY STATE WEATHER ROUNDUP
NATIONAL WEATHER SERVICE MEMPHIS TN
700 PM CDT SAT AUG 01 2015

TNZ002-004-019-021-049-052-054-088>092-020100-
WEST TENNESSEE

CITY           SKY/WX    TMP DP  RH WIND       PRES   REMARKS
MEMPHIS INTL   MOSUNNY   91  62  37 N6        29.95F HX  91
NWS MEMPHIS      N/A     90 N/A N/A MISG        N/A
JACKSON        SUNNY     90  65  43 NW6       29.95F HX  92
DYERSBURG        N/A    N/A N/A N/A MISG        N/A
PARIS          SUNNY     82  72  69 CALM      29.97F
LEXINGTON      SUNNY     86  72  62 CALM      29.95S HX  92
$$

TNZ008-025-027-028-033-062-065-066-020100-
NORTH MIDDLE TENNESSEE

CITY           SKY/WX    TMP DP  RH WIND       PRES   REMARKS
NASHVILLE      PTCLDY    87  65  47 N10       29.96S
CLARKSVILLE    CLEAR     85  69  58 N7        29.96F
SMYRNA         CLEAR     89  65  44 N7        29.96S HX  90
CROSSVILLE     PTCLDY    80  61  52 N5        30.03S
$$

TNZ061-075-076-078-094-096-097-020100-
SOUTH MIDDLE TENNESSEE

CITY           SKY/WX    TMP DP  RH WIND       PRES   REMARKS
FAYETTEVILLE   CLEAR     84  59  42 E5        29.97S
TULLAHOMA      CLEAR     84  61  45 NE3       29.99S
WINCHESTER     CLEAR     84  64  51 NE3       29.97F
MCMINNVILLE    CLEAR     84  66  54 N7        29.98S
COLUMBIA       CLEAR     88  68  51 CALM      29.95F HX  91
SHELBYVILLE    PTCLDY    88  66  48 NE3       29.97S HX  90
$$

TNZ017-018-042-046-047-020100-
NORTHEAST TENNESSEE

CITY           SKY/WX    TMP DP  RH WIND       PRES   REMARKS
TRI CITIES     PTCLDY    82  59  45 NW7       29.98R
ELIZABETHTON   CLEAR     73  64  73 CALM      29.99R
$$

TNZ012-013-036-069-073-074-020100-
CENTRAL EAST TENNESSEE

CITY           SKY/WX    TMP DP  RH WIND       PRES   REMARKS
KNOXVILLE      PTCLDY    86  58  38 CALM      29.95S
OAK RIDGE      CLEAR     87  61  41 NW5       29.97S
GATLINBURG     CLEAR     82  63  51 CALM      29.96R
MORRISTOWN     CLEAR     84  63  48 NW3       29.99R
$$

TNZ083-085-099-020100-
SOUTHEAST TENNESSEE

CITY           SKY/WX    TMP DP  RH WIND       PRES   REMARKS
CHATTANOOGA    PTCLDY    88  63  43 N8        29.94S
$$

SKY/WX REPORTED AS FAIR MEANS FEW OR NO CLOUDS BELOW
12 THOUSAND FEET.




USA.gov is the U.S. government's official web portal to all federal, state and local government web resources and services.